Wind_Speed
23 24 24 22 22 22 23 22 21 21 21 21 21 21 21 21 21 22 22 22 23 22 21 20 21 21 21 20 20 20 20 20 20 20 20 21 21 21 22 22 23 24 24 25 25 26 26 26 26 25 24 25 25 23 22 22 21 21 20 21 22 22 22 21 24 27 27 26 27 27 24 24 23 20 18 16 14 13 12 12 13 15 17 18 19
23 24 24 23 22 22 22 22 22 21 21 21 21 21 22 22 22 23 23 23 23 22 20 20 20 20 19 18 18 19 20 20 20 20 21 22 22 21 21 22 23 24 25 26 27 28 28 28 28 27 27 26 25 24 23 22 21 22 21 21 23 24 23 22 23 26 28 28 30 31 29 30 30 27 26 25 22 19 17 16 15 16 16 18 20
25 25 24 23 23 23 23 22 21 21 21 21 21 21 22 22 22 23 23 23 22 21 20 19 18 18 18 17 17 18 19 20 20 20 20 21 22 22 21 22 22 23 25 26 27 28 30 30 30 29 28 28 28 26 25 23 22 22 22 22 24 26 25 24 24 25 27 28 30 32 31 32 35 35 34 34 32 29 27 24 21 19 18 19 21
26 26 24 23 23 23 23 22 21 21 21 21 21 21 21 22 23 23 23 22 22 21 19 18 17 17 17 16 17 18 19 19 19 19 19 19 20 21 22 23 24 24 24 25 25 26 29 31 32 32 31 30 30 29 27 25 24 23 23 22 23 26 27 26 26 26 27 27 29 31 31 32 34 36 38 40 40 37 36 33 29 26 23 21 22
26 26 25 24 23 23 22 21 21 21 21 21 20 20 21 22 22 23 23 22 21 20 19 18 17 16 16 16 16 18 19 19 18 18 18 17 18 19 20 22 23 24 25 25 25 25 26 29 31 33 33 33 33 31 30 28 26 25 25 24 23 25 27 28 28 28 29 30 29 30 31 33 34 35 36 39 41 41 41 39 36 32 29 26 24
26 25 24 23 23 22 21 21 21 21 21 21 21 20 21 21 22 22 22 22 21 19 18 18 17 16 15 15 16 17 18 18 17 17 17 17 17 18 19 19 21 22 23 24 24 25 26 28 30 32 34 35 35 34 33 31 30 28 27 26 25 25 27 28 28 28 31 32 32 31 32 33 35 36 35 34 37 40 41 42 41 37 33 29 28
24 23 23 23 22 21 20 21 21 21 21 21 21 21 21 21 22 22 21 21 20 19 19 19 18 16 15 15 15 16 17 17 16 16 16 16 16 17 17 17 18 19 20 21 22 23 25 28 30 33 35 36 36 36 36 35 33 32 30 28 27 28 31 31 28 27 31 34 33 32 32 33 34 35 34 32 33 36 38 39 41 40 36 32 29
23 23 22 22 21 20 20 20 21 21 21 21 21 21 21 22 22 21 20 20 19 19 19 19 18 16 15 15 14 16 17 17 15 14 13 14 15 16 15 16 16 17 17 18 19 20 21 23 26 30 33 36 37 37 37 38 37 36 33 31 29 30 32 32 27 24 27 32 33 31 29 29 29 29 28 28 30 34 36 36 37 38 36 33 31
23 22 21 21 20 20 20 20 20 20 21 21 21 21 22 22 22 21 19 19 19 19 19 19 18 16 15 15 15 15 16 14 11 11 12 13 14 15 16 16 17 18 17 17 16 17 17 18 19 22 26 31 35 37 37 38 39 39 37 33 32 32 33 33 30 27 26 28 30 30 27 26 26 26 25 26 28 32 33 33 34 35 33 32 32
22 21 21 21 20 20 20 20 20 20 20 21 21 21 22 21 21 20 18 18 18 19 19 18 18 16 15 15 15 15 14 10 8 9 11 13 15 17 19 20 20 21 21 20 19 17 16 16 15 15 17 21 26 31 34 36 38 39 39 37 35 35 35 35 35 33 31 30 29 29 28 27 28 28 26 26 27 28 29 28 30 31 31 32 32
21 20 21 20 20 20 20 20 20 20 20 20 21 21 21 21 20 19 18 17 18 18 18 18 17 16 15 15 14 14 12 8 7 9 9 11 15 19 22 24 24 24 24 24 23 20 18 17 16 15 15 16 18 21 25 29 33 36 39 39 37 37 38 39 39 38 36 36 35 33 31 32 33 31 28 26 25 26 26 27 27 27 28 29 31
20 20 20 20 20 20 20 21 21 21 20 20 20 21 20 20 19 19 18 17 17 17 18 17 16 15 14 14 14 13 11 7 7 8 7 8 13 20 23 25 26 26 24 23 22 20 18 17 17 17 17 16 17 18 19 22 25 29 34 39 40 39 38 38 40 41 40 39 39 39 38 37 37 36 32 29 27 25 24 25 27 27 26 27 30
20 20 19 19 20 20 20 21 21 21 21 20 20 20 20 19 18 18 17 17 17 17 16 16 16 15 13 13 14 13 10 7 6 6 5 9 15 21 24 26 27 26 23 20 18 17 15 14 15 16 15 16 17 19 19 19 20 22 26 32 39 43 42 39 37 38 40 40 41 42 43 41 41 42 40 34 31 28 25 23 25 27 28 28 29
19 19 19 18 19 19 20 21 22 22 21 20 20 20 19 18 17 17 16 16 16 15 15 15 15 14 13 13 14 13 10 8 6 4 6 13 19 21 20 20 22 22 21 18 14 13 12 13 14 14 14 15 16 16 18 19 19 20 22 25 31 38 45 46 44 41 39 39 41 43 44 42 42 45 42 36 33 33 29 24 23 25 27 27 27
18 18 18 18 18 19 20 21 21 21 21 20 19 19 19 18 16 15 15 14 15 14 14 14 14 13 13 12 13 13 10 8 8 5 7 14 19 20 16 12 14 17 19 19 15 11 10 12 13 13 14 14 14 16 17 17 18 19 21 23 25 29 36 44 49 50 48 46 43 41 39 37 36 37 36 33 35 36 33 28 24 24 25 26 27
17 17 17 17 17 18 19 20 21 21 20 20 19 18 18 17 15 14 14 13 13 13 12 13 13 13 12 11 13 13 10 9 9 7 10 15 17 19 17 10 8 10 14 18 20 17 15 15 15 14 14 13 13 14 15 17 19 20 21 22 23 25 28 31 37 46 52 54 51 45 39 35 34 34 32 33 37 37 34 31 27 23 23 26 29
17 17 17 17 17 17 18 19 20 20 20 19 18 18 17 15 14 13 13 12 12 11 11 11 11 12 11 10 11 12 11 10 10 8 12 15 16 19 17 11 6 5 6 11 16 18 19 19 18 18 17 16 15 14 16 19 23 24 24 24 24 26 27 26 27 33 42 50 54 51 45 40 39 38 34 35 37 35 32 30 27 23 22 25 28
16 17 16 16 16 17 17 18 19 19 19 18 18 17 15 14 13 13 13 12 11 10 10 10 10 10 10 9 9 10 10 10 10 10 13 13 14 18 18 14 8 4 3 5 8 11 13 15 16 17 17 15 15 16 18 22 26 26 25 26 27 28 26 24 24 26 30 39 49 53 50 45 43 42 38 37 39 37 34 32 29 26 26 27 27
16 16 15 15 16 16 17 18 18 18 18 18 17 16 14 13 13 13 13 12 11 9 9 10 9 9 8 8 7 8 8 8 10 12 14 12 12 15 17 16 13 9 7 7 7 8 9 10 11 13 14 14 14 15 16 21 26 27 25 26 29 27 21 20 23 23 23 28 38 47 51 50 48 47 44 41 41 41 39 36 32 31 31 31 28
15 15 15 15 16 16 17 18 18 17 17 16 15 15 14 13 13 13 12 12 11 9 8 9 9 8 7 7 7 8 7 8 12 15 15 13 11 12 15 16 13 12 12 13 13 13 13 13 13 14 15 16 17 17 17 19 24 26 26 27 27 22 17 18 21 20 20 22 25 33 42 47 48 48 45 41 42 43 41 37 33 31 31 30 29
15 15 14 15 15 16 17 18 17 16 16 15 14 13 13 13 13 12 11 11 10 8 6 7 8 8 7 6 7 7 7 10 15 16 15 15 13 12 14 13 11 12 15 17 18 18 16 16 16 16 16 17 19 21 21 20 21 25 28 29 27 22 19 19 19 18 19 19 19 23 29 35 39 42 42 42 43 43 40 35 32 31 29 28 28
15 14 14 14 15 16 17 17 17 15 14 15 14 13 12 13 12 12 11 10 8 7 6 6 8 9 7 6 6 5 7 12 17 16 14 14 14 12 12 12 11 13 17 19 20 19 18 18 18 16 16 16 17 19 21 21 21 24 27 28 27 24 23 23 23 23 22 20 19 20 23 27 31 33 37 41 43 41 38 34 32 31 29 27 27
15 14 13 13 14 15 16 16 16 14 13 14 14 12 11 12 12 11 10 9 8 6 5 6 8 9 7 5 4 6 9 15 18 17 15 14 11 10 10 11 13 14 17 19 19 19 20 20 18 16 15 16 17 19 21 22 23 24 24 24 25 24 24 25 27 28 28 26 24 23 23 25 29 31 35 39 42 41 38 35 33 33 31 30 28
15 14 13 13 13 14 15 15 15 14 12 12 13 12 11 11 10 10 9 8 7 6 5 6 8 9 8 6 6 9 14 17 18 18 16 13 10 9 10 12 14 14 16 17 17 17 17 17 17 16 16 17 17 18 19 21 24 24 23 22 21 21 23 26 26 27 28 29 30 30 28 27 28 30 32 36 40 41 40 38 36 35 34 33 31
15 13 12 13 13 13 13 13 14 13 11 11 11 11 10 10 9 9 9 8 8 6 5 6 7 9 10 9 10 14 18 19 18 18 16 12 9 9 9 12 13 13 14 14 14 14 14 15 16 16 16 16 17 17 18 20 23 25 26 25 22 20 22 25 26 27 29 30 31 32 32 30 29 28 28 30 36 40 41 40 39 38 37 36 35
15 12 12 13 12 12 11 12 13 12 10 10 10 10 9 8 8 9 9 9 8 5 5 5 7 10 11 10 13 19 20 20 19 18 15 12 9 9 10 12 11 10 11 12 12 12 13 14 14 16 17 17 18 18 18 17 18 20 23 25 26 24 23 24 26 27 28 28 28 30 30 29 30 30 27 27 32 37 38 37 38 38 37 37 36
15 13 13 12 12 11 10 10 10 10 9 9 9 9 9 8 8 9 9 9 8 6 4 6 9 11 12 14 19 21 22 21 19 16 14 14 14 14 15 13 10 10 11 12 11 12 13 14 14 15 16 16 16 17 17 16 16 17 17 18 22 25 25 24 25 25 26 26 25 25 26 28 31 32 28 24 26 31 33 33 33 35 35 34 34
15 14 13 12 12 10 9 8 8 8 8 8 8 8 9 8 8 8 9 9 6 3 5 8 11 12 15 19 21 22 23 21 16 15 16 16 16 18 17 13 11 12 14 14 14 15 16 15 14 14 14 15 15 16 16 17 18 17 15 14 16 19 22 23 23 23 25 24 20 19 22 27 32 32 27 23 24 28 30 31 31 31 31 31 32
16 15 13 12 12 10 9 8 7 7 8 8 7 8 8 9 8 8 9 7 2 5 8 10 12 15 18 20 21 22 22 19 15 15 16 16 15 16 16 12 11 13 16 16 16 15 14 12 11 11 12 13 14 15 15 15 16 16 15 14 14 15 17 19 20 22 22 21 20 21 23 26 29 30 27 24 24 26 28 28 28 27 28 30 31
16 15 14 13 12 10 10 9 9 9 9 8 8 7 7 8 8 8 7 6 4 6 7 9 11 13 16 18 20 20 18 16 15 14 14 14 14 13 11 10 12 15 17 16 14 12 11 10 10 10 10 10 10 11 11 11 11 12 13 13 13 13 14 16 19 20 20 20 21 24 26 26 27 28 27 26 25 26 26 26 25 24 26 28 30
17 15 14 13 12 11 11 11 10 10 10 9 9 7 6 7 8 8 8 8 8 7 7 9 11 11 13 16 18 16 12 11 12 12 12 14 13 9 7 12 13 12 13 13 10 9 9 9 8 8 7 7 7 7 7 7 8 8 10 11 11 12 12 13 15 17 19 20 22 24 26 26 25 24 24 26 27 26 26 26 25 25 26 27 28
17 15 14 14 13 12 12 12 12 11 11 10 9 8 7 6 6 8 10 11 11 11 11 13 14 14 15 15 13 11 9 9 10 12 12 13 10 6 7 12 11 8 9 9 7 8 8 7 6 6 6 6 6 6 6 6 7 7 7 7 9 10 11 12 12 14 16 19 20 22 24 25 24 21 21 24 26 26 27 26 26 26 26 27 28
17 16 15 15 14 13 13 13 13 12 11 11 10 9 9 8 7 7 8 9 11 13 14 14 14 13 14 12 9 7 8 8 10 12 12 10 7 6 8 10 9 8 7 7 6 7 7 6 6 6 6 6 6 6 6 6 6 7 7 6 6 7 9 11 11 12 14 16 18 19 21 23 23 22 22 23 25 26 27 27 26 26 27 28 29
18 17 16 15 15 14 14 14 13 12 12 12 10 9 9 9 8 7 6 7 8 10 11 12 11 10 11 10 9 9 10 10 10 12 11 8 6 5 6 7 8 8 8 7 8 7 6 6 6 6 7 7 7 7 7 7 7 7 7 6 6 6 7 9 10 12 13 15 17 18 19 21 22 23 23 25 26 27 28 28 27 27 27 28 29
19 18 17 16 15 14 14 14 13 12 12 12 11 9 9 9 8 7 7 6 6 7 8 8 8 8 8 9 10 9 9 9 9 10 9 7 6 5 4 6 8 9 9 10 10 8 7 6 7 7 8 8 7 8 8 9 9 9 8 7 7 6 6 7 9 10 12 14 16 18 20 21 22 22 23 23 24 27 29 29 29 29 29 29 29
20 19 18 17 15 14 14 14 13 12 12 12 11 10 10 9 8 7 7 7 6 6 6 6 6 6 6 7 8 8 7 8 8 8 8 8 6 5 4 6 7 8 8 8 7 7 7 7 7 8 9 9 9 9 9 9 9 10 9 8 8 7 7 7 7 9 11 12 15 17 18 20 22 23 23 22 22 23 25 26 27 29 29 29 29
20 19 18 16 16 15 15 14 13 13 12 12 11 11 10 10 8 7 7 7 6 6 6 5 5 5 5 6 7 7 6 6 6 7 7 7 6 4 4 5 5 5 5 4 5 5 5 6 6 7 8 9 9 10 9 8 8 8 9 9 9 8 8 7 7 8 9 10 12 15 17 18 20 21 23 24 24 23 23 24 25 27 27 27 28
21 20 18 17 17 16 15 14 14 13 13 13 12 11 11 10 9 8 7 7 6 6 6 5 5 4 5 5 6 6 5 4 5 5 5 5 5 4 3 3 3 3 3 3 3 4 4 5 6 6 7 8 9 9 9 8 8 7 8 8 8 9 9 8 8 8 9 9 10 12 14 16 18 20 22 24 25 25 24 24 25 25 26 27 30
22 20 19 19 18 17 16 15 14 14 13 13 12 12 11 10 9 8 8 7 6 6 6 5 5 5 4 4 4 3 2 2 4 5 4 4 4 3 3 3 3 3 3 3 3 3 3 4 4 5 6 7 9 9 8 8 8 7 7 7 8 8 8 8 8 8 8 9 10 10 11 12 15 18 21 23 25 25 24 23 24 25 26 28 31
21 20 19 19 19 18 16 16 15 14 14 14 13 12 11 10 9 9 8 7 7 6 6 5 5 5 5 4 3 2 2 2 3 3 3 3 3 3 3 3 4 4 4 4 4 3 3 3 3 4 5 6 7 8 7 7 7 7 7 7 8 8 7 7 8 8 8 9 9 9 10 10 11 13 17 20 23 24 25 25 25 25 26 28 30
20 21 21 20 19 19 18 17 16 15 15 14 13 12 12 11 10 9 8 7 7 7 6 6 5 5 5 5 4 3 3 4 4 4 4 3 3 3 3 4 4 4 5 5 6 5 5 5 4 4 4 5 6 7 7 6 6 7 7 7 7 7 7 7 7 7 7 8 8 8 9 9 10 12 14 16 19 21 23 24 25 26 26 27 29
21 22 22 21 20 19 18 17 16 16 15 15 13 12 12 11 10 10 9 8 7 7 6 6 6 5 5 5 5 4 4 5 5 5 5 5 4 4 4 4 4 4 5 5 6 6 6 6 6 5 5 5 5 5 6 6 6 6 6 6 6 7 7 7 7 7 6 7 7 8 8 9 10 11 12 13 16 18 20 21 23 24 25 26 26
23 23 22 21 20 20 18 17 17 17 16 15 14 13 12 12 11 10 10 9 8 7 7 7 7 6 5 5 5 5 5 5 6 6 6 6 5 5 5 5 4 4 4 5 6 6 6 6 6 6 6 6 6 6 6 6 6 7 7 6 6 6 6 6 6 6 6 6 6 7 7 8 9 9 10 10 12 15 18 19 20 21 22 23 24
23 23 22 22 21 20 19 18 17 17 16 15 14 14 13 12 12 11 10 10 9 8 8 8 7 7 7 6 6 6 6 6 6 6 6 6 6 6 6 6 5 5 5 5 5 5 6 6 6 7 7 7 7 7 7 7 7 7 7 7 6 6 5 5 6 6 6 6 6 6 6 7 7 8 9 9 9 11 14 17 18 18 19 19 21
23 23 22 22 21 20 19 18 18 17 16 16 15 14 14 13 13 12 12 11 10 10 9 9 8 8 8 7 7 7 7 7 7 7 6 6 6 6 6 6 6 6 6 6 6 5 5 6 6 6 6 6 6 7 7 7 7 7 7 7 7 6 6 5 6 6 6 6 6 6 6 6 6 6 6 7 8 8 10 13 15 17 17 18 18
23 23 22 21 21 20 19 18 18 17 17 17 16 15 14 14 13 13 13 12 12 11 11 10 10 9 9 8 8 7 7 7 7 7 7 7 7 7 6 6 6 6 6 6 6 6 6 6 6 6 6 6 6 6 7 7 7 7 7 7 7 7 7 6 6 6 6 6 6 6 6 5 5 5 5 4 5 6 7 9 11 13 15 16 17
23 23 22 21 20 20 19 18 18 18 18 17 16 15 15 14 14 14 14 13 13 12 12 11 11 10 10 9 9 8 8 8 8 8 8 8 8 7 7 7 7 7 7 7 7 7 7 7 7 7 7 7 7 7 7 7 7 8 8 7 7 7 6 5 5 6 6 6 6 6 6 5 5 4 4 4 3 2 4 5 7 9 11 13 14
23 22 22 21 20 20 19 19 19 18 18 17 16 16 15 15 14 14 14 14 13 12 12 12 12 11 11 10 10 9 9 9 9 9 9 9 9 8 8 8 8 8 8 8 8 8 8 8 8 8 8 8 8 8 8 8 8 8 8 8 8 7 7 6 5 5 5 6 6 6 6 6 5 5 4 3 2 1 0 2 4 6 7 9 11
23 22 22 21 20 20 19 18 18 17 16 16 16 15 15 14 14 14 14 13 13 12 12 12 12 11 11 11 10 10 10 10 10 9 9 9 9 9 10 9 9 9 9 9 9 9 9 9 9 9 9 9 9 8 8 8 8 8 8 8 8 8 8 7 6 6 6 5 5 6 6 5 5 5 4 3 2 1 1 1 2 3 5 6 8
22 21 21 20 19 18 18 17 17 16 16 16 16 15 14 14 14 13 13 13 12 12 11 11 11 11 11 10 10 10 10 10 10 10 10 10 10 10 10 10 11 11 10 10 10 10 10 10 10 10 10 10 10 10 9 9 9 9 9 9 9 9 8 8 8 7 7 6 6 6 6 5 4 4 4 4 2 1 2 2 2 3 4 5 6
21 20 19 19 18 18 18 17 16 16 16 15 15 14 13 13 13 12 12 12 11 11 10 10 10 10 10 10 9 9 10 10 10 10 10 10 10 10 10 11 11 11 11 12 12 11 11 11 11 11 11 11 11 10 10 10 10 10 10 9 9 9 9 9 9 8 8 8 7 7 7 6 6 5 4 4 3 2 1 1 2 3 4 5 5
Wind_Direction
291 292 293 292 289 285 281 280 280 281 281 280 280 281 281 280 281 284 287 289 291 292 294 297 299 301 302 303 304 306 307 306 302 297 289 282 278 274 272 269 266 264 264 263 259 256 255 254 251 249 248 248 246 243 240 238 239 240 242 247 249 249 250 255 261 263 260 260 261 257 250 249 248 242 240 234 222 224 229 229 238 245 244 244 243
293 293 292 291 290 288 284 281 281 281 281 280 280 280 279 279 280 283 285 287 289 290 292 294 296 297 298 300 303 306 306 306 304 299 291 285 283 279 273 269 266 264 262 262 260 255 253 253 251 248 246 246 246 244 241 240 240 240 241 246 251 251 252 257 261 264 263 260 260 263 260 257 254 251 254 256 248 245 248 245 248 252 251 249 246
297 295 292 290 289 288 285 283 281 280 280 280 279 279 279 279 280 282 284 285 287 288 290 292 293 294 294 297 302 304 306 307 307 303 296 289 286 283 278 273 270 267 264 262 260 257 253 252 251 249 246 245 244 243 242 241 242 242 242 244 250 252 253 256 260 264 267 264 260 262 264 262 258 253 254 260 261 259 257 255 256 259 258 256 253
300 296 292 289 286 285 284 282 280 279 279 278 278 278 278 280 281 281 282 283 285 287 288 289 290 290 290 294 299 302 304 306 307 305 302 296 289 283 278 274 271 269 268 264 261 259 255 253 251 249 248 246 243 242 241 241 241 243 244 243 247 251 251 254 257 261 266 267 262 261 264 266 263 257 254 256 260 262 262 261 261 262 261 259 259
301 296 291 286 284 283 282 282 280 279 278 278 277 277 278 279 280 281 281 282 284 286 287 287 287 285 285 289 295 300 304 305 308 310 309 305 297 290 283 277 272 269 267 265 261 258 256 254 252 250 249 248 245 242 242 242 240 241 243 243 245 249 250 251 255 258 262 266 265 263 264 266 266 264 260 257 257 258 260 261 262 264 263 260 258
301 295 289 283 281 280 280 281 280 279 279 279 279 279 279 279 279 279 281 282 284 285 285 286 284 280 280 284 290 298 301 302 308 312 313 311 305 300 293 285 279 273 269 266 263 258 255 253 252 250 249 248 246 243 243 243 242 241 242 243 245 249 252 254 255 257 259 262 265 266 266 266 266 265 264 262 261 260 259 259 259 261 263 260 256
298 291 284 280 278 278 279 280 279 280 280 281 282 282 281 280 278 279 281 283 284 285 283 283 282 278 276 279 288 295 297 299 306 309 312 315 312 307 301 294 287 281 274 270 266 262 258 254 252 250 249 249 248 245 244 244 244 243 242 242 245 248 255 259 260 262 262 260 262 265 265 265 266 266 265 263 262 261 260 260 259 257 257 256 254
294 289 284 281 280 279 280 279 279 281 282 283 284 284 283 280 279 279 280 281 282 283 282 281 280 277 275 279 286 289 291 297 306 310 314 318 315 311 308 303 298 293 286 279 273 269 265 261 257 253 249 248 247 246 245 244 244 244 242 242 244 245 249 253 254 261 264 259 257 261 261 257 258 262 264 262 261 258 256 257 259 257 255 253 251
292 290 287 285 283 281 280 279 280 280 281 283 284 284 283 281 280 280 279 279 279 279 279 279 279 276 274 277 279 281 289 300 311 319 321 320 317 315 312 309 306 304 299 292 284 279 275 271 266 262 256 252 249 247 246 245 245 245 243 241 242 243 243 244 246 253 259 255 250 250 249 249 252 257 261 261 260 259 256 256 259 258 257 255 250
291 290 289 287 285 282 281 280 280 280 281 282 283 284 283 282 281 281 278 277 276 276 276 276 275 274 272 274 276 281 291 304 319 328 329 325 321 317 313 310 306 303 301 298 293 287 282 278 276 273 268 260 254 251 250 248 247 246 245 243 242 243 243 244 246 250 254 256 253 248 247 252 257 260 265 265 262 262 261 260 260 257 255 254 251
292 290 288 287 285 284 283 282 281 281 280 281 282 284 284 283 282 280 278 276 273 273 273 272 270 270 271 273 277 285 293 303 328 337 335 329 317 306 304 306 305 303 299 296 295 292 286 281 278 275 271 267 262 257 254 253 250 247 246 245 243 243 244 246 248 250 252 255 256 255 255 257 259 261 264 265 265 266 264 259 259 259 256 252 250
294 290 287 286 285 285 284 282 281 281 281 280 282 283 284 283 281 278 277 276 273 270 269 269 267 266 270 273 277 285 290 300 335 345 344 337 315 298 294 296 299 302 300 297 296 296 291 285 279 274 269 266 265 263 259 256 254 251 247 244 242 242 243 246 248 251 253 254 256 256 256 256 258 260 260 258 260 264 265 259 255 257 258 254 250
296 292 289 287 285 284 284 282 281 281 281 281 282 283 284 284 280 277 276 274 272 268 265 265 264 263 268 271 274 279 281 287 323 348 356 344 326 308 296 288 287 293 298 299 299 297 295 288 281 276 272 269 268 265 262 258 255 254 251 246 242 240 240 242 246 249 253 256 258 258 257 256 256 257 258 258 256 257 260 261 256 254 256 254 250
295 292 290 288 285 284 282 281 281 281 282 282 282 283 285 284 279 275 274 272 269 266 264 262 260 262 265 264 266 272 273 272 286 327 354 342 333 321 305 287 278 280 288 296 301 302 300 294 287 283 280 276 270 264 264 263 258 256 253 250 247 243 240 240 241 242 245 249 255 257 258 257 255 255 256 254 252 253 255 258 259 258 257 254 250
294 293 291 289 286 283 282 281 282 281 281 282 282 283 286 284 279 273 272 272 269 265 263 260 256 258 259 257 260 262 262 266 269 292 338 335 331 327 319 301 280 274 280 288 292 297 302 298 294 292 287 280 274 271 271 270 266 262 257 255 254 252 247 243 241 240 239 239 244 250 254 255 254 255 251 242 242 249 252 257 263 264 261 258 255
294 294 293 292 289 287 285 283 282 282 281 281 281 284 285 282 277 274 271 270 268 265 264 261 256 254 252 255 258 254 253 263 261 279 321 326 328 328 325 322 301 282 283 289 289 289 292 293 295 297 292 285 278 277 278 276 274 272 266 261 258 256 254 251 247 244 241 238 238 240 243 245 246 249 243 232 235 245 253 259 265 265 263 261 257
291 291 292 292 290 289 288 285 283 282 281 282 281 282 283 280 277 276 274 271 267 262 260 258 257 255 250 252 258 254 254 260 258 282 315 320 328 327 318 316 327 320 311 305 297 293 292 292 294 295 293 290 285 281 280 276 275 278 279 276 271 265 262 260 256 250 244 240 237 236 237 238 239 243 241 230 232 244 256 262 262 259 260 261 255
286 286 289 290 290 292 292 289 287 284 281 282 282 280 281 280 278 278 277 276 269 260 259 258 256 258 255 253 260 263 263 263 267 291 308 313 325 326 312 303 304 303 311 314 302 297 295 292 293 294 292 290 287 285 284 276 271 275 281 281 279 277 274 269 263 258 250 242 237 235 237 239 241 244 243 234 233 242 252 256 256 257 260 260 257
282 284 286 289 292 295 296 295 292 288 283 281 279 279 281 280 277 278 278 277 271 263 266 269 265 265 263 257 258 263 270 282 289 295 300 303 317 324 314 300 292 284 277 269 264 273 282 282 284 285 283 281 278 280 285 279 271 271 275 277 276 277 278 273 269 266 259 250 241 236 237 239 242 245 244 237 234 239 245 248 252 254 256 259 259
279 282 284 290 294 296 298 298 295 290 284 281 280 280 281 279 277 278 276 273 271 269 274 281 281 277 267 260 259 254 261 289 295 291 289 286 294 315 314 299 292 296 293 279 263 257 261 266 271 271 270 270 270 271 275 275 271 269 268 266 269 274 278 277 276 272 266 260 251 242 239 239 241 243 242 237 235 238 242 245 248 248 250 254 256
277 279 282 289 293 296 299 299 296 292 285 282 281 278 277 277 277 277 272 265 265 268 274 282 286 282 268 261 267 264 271 291 292 291 290 279 273 290 301 294 295 308 304 291 276 268 268 271 273 274 271 267 262 261 263 264 265 267 264 262 266 275 280 277 277 277 273 268 260 250 243 240 240 240 238 235 234 236 239 243 246 245 246 250 251
274 276 280 286 290 295 299 298 297 294 286 282 280 275 272 273 273 272 268 262 260 261 266 276 283 287 279 263 267 287 298 294 292 296 303 291 275 276 288 294 302 305 298 289 280 276 275 275 277 282 282 277 268 260 257 258 262 265 265 265 266 270 272 273 273 272 272 269 264 255 244 238 236 235 233 231 232 235 239 243 247 247 247 250 251
271 274 278 282 287 294 298 298 297 293 284 279 277 274 268 266 264 263 263 262 258 252 256 275 289 296 291 270 279 309 299 290 293 303 310 301 284 275 285 299 303 299 293 289 282 276 273 274 278 283 282 280 277 268 259 256 258 260 262 264 264 262 262 265 267 266 266 265 262 258 249 240 236 234 233 231 230 232 238 244 248 250 251 253 254
267 272 275 279 285 293 297 298 296 291 283 276 275 273 265 258 254 254 256 257 253 245 253 282 302 310 306 303 319 314 295 288 297 310 314 304 285 275 285 298 301 297 293 289 283 278 276 277 281 284 283 283 283 278 268 259 255 254 254 257 261 259 254 255 258 260 261 260 257 256 255 250 242 238 237 235 231 231 236 242 247 250 252 254 255
264 268 271 276 283 290 295 296 292 289 282 274 271 266 257 249 243 244 247 245 240 240 258 286 307 320 326 332 321 299 289 292 304 315 318 310 293 286 291 294 295 296 296 292 288 285 286 286 282 278 276 276 274 272 269 262 256 253 250 250 254 255 251 250 252 253 255 255 256 257 259 257 252 247 245 243 238 235 235 240 244 246 249 251 253
262 264 266 272 279 285 291 291 287 286 281 271 266 259 253 245 234 234 235 229 224 232 261 291 319 332 333 320 296 285 290 302 312 318 321 317 313 313 306 298 297 301 301 295 289 287 289 287 278 268 265 266 265 264 266 266 264 261 256 251 249 251 251 248 247 248 250 253 257 259 260 260 257 252 251 250 244 237 235 237 240 243 245 247 250
259 259 261 267 273 279 285 282 279 280 275 266 260 257 256 247 231 228 226 216 212 225 268 313 334 332 313 291 284 287 297 307 315 324 331 334 334 326 313 308 316 317 305 295 294 300 301 294 280 268 264 264 266 267 267 266 266 268 265 257 250 248 248 247 246 248 251 254 258 261 260 259 254 250 251 252 242 232 229 231 234 237 239 241 245
255 256 258 262 266 272 275 269 264 264 265 262 256 254 255 249 238 228 214 204 208 248 313 329 326 309 292 287 289 294 301 310 324 337 338 337 332 318 311 321 336 324 304 298 302 305 304 296 282 272 268 266 266 268 267 263 262 264 266 264 256 249 246 245 245 248 251 253 256 259 257 253 248 245 248 249 237 224 223 225 228 230 231 233 237
251 252 253 256 260 262 260 253 245 246 256 259 255 252 249 247 246 230 201 190 231 313 316 311 300 288 286 289 292 297 305 318 332 333 329 328 320 310 314 328 325 300 290 294 301 303 302 298 287 278 273 270 268 268 266 262 260 258 257 259 260 254 247 242 241 246 249 248 250 253 252 248 245 244 247 246 234 223 222 224 225 227 228 230 233
247 249 249 251 254 254 249 244 238 240 249 254 255 256 248 243 247 235 206 203 259 290 291 288 284 283 287 288 290 297 310 322 325 322 321 319 314 316 320 305 280 275 283 294 302 307 309 310 303 292 284 279 277 275 272 269 265 258 252 252 255 253 244 237 236 240 241 240 245 251 250 246 244 245 244 238 230 225 225 226 227 229 231 232 232
245 246 245 246 247 245 243 241 237 239 245 249 253 257 251 241 241 235 225 229 243 252 261 267 268 273 280 283 288 298 312 321 321 319 316 312 315 327 310 282 276 281 292 298 303 306 307 307 303 300 298 295 294 294 291 288 285 273 257 249 249 250 244 236 232 232 233 235 240 245 245 245 249 251 241 230 225 226 228 229 230 232 234 235 233
244 242 242 243 242 239 238 238 238 241 245 247 248 250 249 243 235 229 228 233 237 237 246 257 262 267 273 276 286 305 321 323 316 309 305 308 319 320 283 283 296 309 307 305 303 297 295 294 291 295 304 307 308 309 304 301 300 296 285 266 254 252 249 243 236 230 230 233 237 237 238 242 250 251 241 230 227 229 231 233 234 233 233 233 233
243 240 239 240 239 238 237 237 239 243 246 247 244 242 243 241 230 222 226 234 239 242 250 259 265 270 272 270 268 283 299 301 299 299 303 311 322 313 291 295 310 317 311 307 294 283 285 292 294 295 299 302 306 308 308 306 302 300 302 297 280 266 257 251 246 238 233 233 234 234 234 237 242 245 244 240 236 234 233 234 235 234 233 232 232
241 238 238 237 237 237 237 238 240 244 249 250 245 238 241 243 238 233 231 230 233 240 251 261 268 270 270 265 258 263 276 283 290 299 308 314 318 313 303 300 301 301 298 290 283 285 295 301 303 307 305 302 301 298 297 298 296 294 296 298 294 282 268 260 253 247 241 238 236 236 234 233 233 236 239 242 244 244 241 238 235 234 234 234 234
239 238 237 237 237 237 237 238 241 244 248 251 248 243 244 247 247 249 250 243 233 231 239 252 263 266 264 263 263 268 277 286 296 308 316 318 317 311 298 290 288 286 282 279 282 292 302 305 311 317 315 312 310 303 297 294 292 291 292 290 286 280 273 268 261 254 249 243 240 239 237 236 235 233 232 234 238 242 243 243 241 239 238 238 238
239 238 237 237 237 237 238 239 240 243 247 249 247 247 249 250 249 250 253 252 248 242 240 247 259 264 263 265 271 274 277 288 305 319 323 323 324 314 283 265 262 263 265 271 281 295 306 311 317 319 319 321 320 314 308 301 294 293 294 293 291 286 280 274 267 260 255 249 245 242 240 238 238 237 235 233 234 238 241 244 245 244 242 240 240
238 238 236 237 236 235 237 238 238 241 245 246 245 247 250 253 252 250 251 252 251 249 246 245 252 260 261 264 268 267 270 290 315 327 327 326 326 311 277 252 248 255 263 273 286 297 306 314 319 321 323 325 323 318 315 309 300 297 296 295 297 298 295 288 277 268 262 256 251 247 243 240 238 237 236 236 237 238 238 239 242 244 244 241 240
236 235 233 234 235 235 236 237 237 240 242 243 244 246 248 250 248 247 250 252 250 252 251 245 242 242 238 241 252 254 263 300 317 316 316 318 316 310 308 303 298 298 297 296 301 309 314 318 324 329 330 330 327 323 318 312 308 304 298 294 296 298 299 297 290 282 277 271 263 257 251 246 242 239 238 237 237 236 235 236 238 241 244 243 240
232 232 230 232 234 235 235 235 236 239 241 242 242 244 245 245 243 241 245 248 250 254 258 257 258 257 247 240 246 249 258 296 294 287 293 306 316 330 347 348 342 341 341 340 338 335 330 330 334 336 338 340 339 332 324 318 317 313 307 303 301 299 299 298 292 286 281 276 269 264 261 255 248 243 241 240 240 240 240 239 239 239 241 244 243
231 231 231 232 233 234 234 234 235 238 240 240 240 241 241 241 239 238 242 245 248 253 257 258 264 272 272 267 263 263 276 288 290 296 310 323 337 351 357 356 357 1 2 3 2 2 359 359 354 349 349 352 350 342 333 329 330 328 322 318 312 308 306 302 295 288 284 278 272 267 265 266 263 255 246 241 239 239 239 239 239 238 240 244 247
229 229 230 231 231 231 232 232 233 236 238 238 238 238 239 238 238 238 238 241 245 250 255 259 262 269 278 282 282 286 293 298 304 312 318 326 335 344 349 356 2 6 11 12 11 13 14 14 10 7 7 7 5 358 348 342 344 344 337 331 326 323 323 320 312 304 294 287 281 274 269 268 269 268 260 248 239 236 234 234 235 235 237 242 246
226 228 229 230 230 230 231 230 231 233 235 235 235 236 236 236 237 238 238 239 243 247 252 258 263 266 274 283 288 293 296 299 301 302 305 310 318 324 332 343 352 359 6 9 10 12 14 14 12 10 11 13 16 13 3 357 359 359 352 346 341 337 336 337 334 327 316 302 291 284 278 273 269 270 269 259 244 234 230 229 230 232 235 239 242
226 227 229 229 229 230 230 229 229 231 233 234 234 235 235 235 236 238 238 239 240 243 247 254 260 264 268 275 283 287 289 292 293 293 294 297 299 304 312 320 326 336 347 354 359 3 5 7 6 4 3 5 11 14 12 10 10 8 3 358 354 350 349 350 349 346 340 331 318 304 295 287 276 269 270 268 254 239 230 226 225 227 230 234 237
225 226 227 228 228 229 229 228 229 231 233 233 234 235 236 237 237 238 240 241 242 244 245 248 253 260 264 268 274 279 282 285 286 285 287 290 292 294 298 301 306 315 322 330 338 343 347 351 355 356 357 357 358 1 4 7 9 10 8 4 1 360 358 356 357 1 360 353 343 332 321 310 295 279 270 266 259 246 235 227 223 221 222 225 229
225 226 227 227 227 228 228 228 230 231 232 233 235 236 238 240 240 240 242 243 244 246 248 249 251 256 260 264 269 274 277 281 282 282 284 286 288 291 294 296 299 302 306 309 314 319 324 330 334 338 341 344 345 347 350 352 356 0 2 0 359 2 4 6 10 12 10 6 0 353 343 335 327 310 286 268 257 248 237 229 223 220 219 219 221
226 226 227 227 227 228 228 228 230 232 234 235 237 238 240 242 244 244 244 245 246 248 250 253 254 256 258 260 264 268 273 277 280 283 285 287 287 289 292 295 297 298 300 303 305 307 310 312 315 319 322 325 328 332 334 337 340 344 347 352 354 353 354 2 12 15 12 12 11 6 356 346 342 342 332 303 271 249 234 226 222 220 219 219 219
226 226 227 227 226 226 227 227 229 232 235 235 237 238 241 243 245 246 247 247 248 248 250 253 256 257 259 260 262 264 269 274 277 281 285 287 288 290 291 293 295 298 300 302 303 304 305 307 307 308 309 310 313 319 320 322 325 327 329 333 337 337 336 343 356 3 5 8 11 12 9 3 357 356 355 345 320 269 234 222 215 212 214 216 216
224 224 225 225 225 225 225 226 228 231 233 235 236 238 240 243 245 247 248 248 249 250 251 253 255 256 258 261 262 264 267 270 273 277 281 283 286 289 291 292 294 295 296 299 301 302 303 303 303 303 303 304 305 308 308 309 312 314 316 317 319 318 319 324 332 340 346 351 357 2 5 8 12 12 7 360 1 13 182 199 200 201 204 205 206
224 223 224 224 225 225 225 227 229 231 233 236 237 238 240 242 244 246 247 248 249 251 252 253 254 256 257 259 262 264 266 269 271 273 276 279 282 285 288 290 292 292 293 295 296 297 299 300 300 300 300 300 301 302 302 302 303 304 305 307 307 307 308 309 310 314 320 327 335 341 344 352 3 9 10 11 20 58 100 126 159 182 190 194 196
223 223 224 225 226 226 226 227 229 230 231 234 235 237 239 242 243 244 246 247 248 250 252 253 255 257 257 259 261 262 265 267 269 271 273 275 277 279 282 285 287 289 290 291 292 293 294 295 296 297 298 299 300 300 300 300 299 298 297 297 297 297 298 298 298 300 302 304 306 311 316 322 333 345 353 359 8 45 89 106 126 147 159 170 180
223 223 223 224 225 226 226 227 228 230 232 234 236 238 240 241 242 244 246 246 247 249 251 253 255 257 259 260 261 262 264 266 267 268 271 272 272 274 276 278 280 283 285 287 288 289 290 291 293 295 296 297 298 298 298 298 298 296 295 294 293 292 292 292 291 291 291 291 291 293 294 297 301 306 314 320 324 329 9 96 117 129 138 148 157
Height
1458 1457 1455 1454 1453 1453 1451 1450 1449 1447 1446 1445 1444 1443 1442 1441 1440 1439 1437 1436 1435 1434 1433 1432 1430 1428 1427 1426 1424 1423 1421 1420 1419 1418 1417 1416 1415 1415 1415 1415 1415 1415 1415 1415 1415 1416 1416 1417 1418 1419 1420 1421 1421 1422 1423 1425 1426 1427 1428 1429 1430 1431 1432 1432 1432 1432 1434 1435 1436 1437 1439 1440 1441 1442 1443 1444 1445 1445 1445 1446 1446 1447 1448 1450 1451
1455 1453 1452 1450 1450 1449 1448 1447 1446 1444 1443 1441 1440 1440 1439 1438 1437 1435 1434 1433 1432 1431 1430 1429 1427 1426 1424 1423 1421 1420 1419 1418 1416 1415 1414 1413 1412 1412 1411 1411 1411 1411 1411 1411 1412 1412 1413 1413 1414 1415 1417 1417 1418 1419 1420 1421 1422 1423 1424 1425 1427 1428 1429 1429 1430 1430 1430 1431 1432 1433 1436 1438 1438 1439 1440 1440 1442 1443 1443 1444 1444 1445 1446 1447 1448
1451 1449 1448 1447 1446 1445 1444 1443 1442 1441 1440 1439 1438 1437 1435 1434 1433 1432 1431 1430 1428 1428 1427 1426 1424 1423 1422 1420 1419 1418 1416 1415 1414 1412 1411 1410 1409 1408 1408 1408 1407 1407 1407 1407 1408 1409 1409 1410 1410 1412 1413 1414 1415 1416 1417 1418 1419 1419 1420 1422 1423 1424 1426 1426 1427 1427 1427 1427 1429 1429 1431 1434 1435 1436 1437 1438 1439 1440 1440 1441 1442 1443 1444 1445 1446
1447 1445 1444 1443 1442 1442 1440 1440 1439 1438 1437 1436 1435 1434 1432 1431 1430 1428 1427 1426 1425 1424 1424 1423 1421 1420 1419 1418 1416 1415 1414 1412 1411 1410 1409 1407 1406 1405 1405 1404 1404 1404 1404 1404 1404 1405 1405 1406 1407 1408 1410 1410 1411 1413 1414 1415 1416 1416 1417 1418 1420 1421 1422 1423 1423 1424 1424 1424 1425 1426 1427 1429 1431 1433 1434 1435 1435 1437 1437 1438 1440 1441 1442 1443 1444
1443 1441 1440 1439 1438 1438 1437 1436 1435 1434 1434 1433 1432 1430 1429 1428 1426 1425 1424 1423 1422 1421 1420 1419 1418 1417 1416 1415 1414 1412 1411 1410 1408 1407 1406 1405 1404 1402 1402 1401 1401 1400 1400 1400 1400 1401 1402 1402 1403 1404 1405 1406 1407 1409 1410 1411 1412 1413 1414 1415 1416 1417 1418 1419 1420 1421 1421 1421 1422 1423 1424 1425 1427 1429 1431 1432 1432 1433 1434 1435 1436 1438 1439 1440 1442
1439 1438 1437 1436 1435 1434 1433 1432 1431 1430 1430 1429 1428 1427 1426 1424 1423 1422 1421 1419 1419 1418 1417 1416 1415 1414 1413 1412 1411 1410 1408 1407 1406 1405 1403 1402 1401 1400 1399 1398 1397 1397 1397 1397 1397 1397 1398 1398 1399 1400 1401 1401 1403 1405 1406 1407 1408 1409 1410 1411 1413 1414 1415 1416 1416 1417 1417 1418 1418 1419 1420 1423 1424 1425 1428 1430 1430 1430 1431 1431 1432 1434 1436 1437 1438
1436 1435 1434 1432 1431 1430 1429 1429 1428 1427 1426 1425 1424 1423 1422 1421 1419 1418 1417 1416 1415 1415 1414 1413 1412 1411 1410 1409 1408 1407 1406 1405 1404 1402 1401 1400 1398 1397 1396 1395 1395 1394 1394 1393 1393 1394 1394 1394 1395 1396 1397 1398 1399 1401 1402 1403 1404 1405 1406 1408 1409 1410 1411 1411 1412 1412 1413 1414 1414 1415 1417 1420 1422 1422 1424 1427 1427 1427 1427 1428 1428 1430 1432 1433 1434
1432 1431 1430 1429 1428 1427 1426 1425 1424 1423 1422 1421 1421 1420 1418 1417 1416 1415 1414 1413 1412 1411 1410 1410 1409 1408 1408 1407 1406 1405 1403 1402 1401 1400 1399 1398 1396 1395 1394 1393 1392 1391 1391 1391 1390 1390 1390 1391 1391 1391 1392 1393 1395 1396 1398 1399 1400 1401 1403 1405 1406 1406 1407 1408 1408 1409 1410 1411 1411 1413 1415 1417 1419 1419 1421 1422 1422 1422 1424 1425 1424 1425 1428 1429 1431
1429 1428 1427 1426 1425 1424 1422 1421 1420 1420 1419 1418 1417 1416 1415 1414 1412 1411 1411 1409 1409 1408 1407 1406 1406 1405 1405 1404 1403 1402 1401 1400 1399 1398 1396 1395 1394 1393 1392 1391 1390 1389 1389 1388 1388 1388 1387 1387 1388 1388 1388 1389 1391 1392 1393 1395 1396 1397 1399 1401 1402 1403 1404 1404 1406 1407 1408 1409 1409 1411 1413 1414 1415 1416 1417 1418 1418 1418 1420 1422 1421 1422 1424 1425 1426
1426 1424 1423 1422 1421 1420 1419 1418 1417 1416 1415 1414 1413 1412 1411 1410 1409 1408 1407 1406 1406 1405 1404 1403 1403 1402 1402 1402 1400 1399 1398 1397 1396 1395 1394 1393 1392 1390 1389 1388 1388 1387 1387 1386 1385 1385 1385 1385 1385 1385 1386 1386 1387 1388 1390 1391 1392 1393 1395 1397 1398 1399 1400 1401 1402 1404 1405 1406 1407 1408 1410 1410 1411 1413 1414 1415 1416 1416 1417 1418 1418 1419 1421 1421 1421
1422 1421 1420 1419 1418 1417 1415 1414 1413 1412 1412 1411 1410 1409 1407 1406 1405 1405 1404 1403 1402 1402 1401 1400 1400 1399 1399 1399 1398 1397 1396 1395 1394 1393 1392 1391 1390 1389 1387 1385 1384 1384 1384 1383 1382 1382 1382 1382 1383 1383 1383 1383 1384 1385 1386 1387 1388 1389 1391 1392 1394 1395 1396 1396 1398 1399 1401 1402 1403 1404 1405 1406 1407 1409 1411 1412 1413 1413 1414 1415 1415 1416 1417 1417 1417
1419 1417 1417 1415 1414 1413 1411 1410 1409 1408 1408 1407 1406 1405 1404 1403 1402 1401 1400 1400 1399 1398 1398 1397 1397 1397 1396 1396 1395 1394 1394 1393 1392 1390 1390 1389 1389 1388 1386 1384 1382 1381 1380 1380 1379 1379 1379 1379 1379 1380 1380 1381 1381 1382 1382 1383 1384 1384 1386 1387 1389 1390 1391 1392 1394 1395 1396 1397 1398 1400 1401 1402 1404 1405 1407 1409 1410 1411 1411 1412 1413 1413 1413 1414 1414
1415 1414 1413 1412 1410 1409 1408 1406 1405 1404 1404 1403 1402 1401 1400 1399 1399 1398 1397 1397 1396 1395 1395 1394 1394 1394 1393 1393 1392 1392 1392 1391 1389 1388 1387 1387 1386 1385 1384 1382 1380 1378 1377 1377 1377 1376 1376 1376 1376 1376 1377 1378 1378 1379 1379 1380 1380 1380 1381 1382 1383 1385 1386 1388 1390 1391 1393 1393 1393 1394 1396 1398 1399 1400 1403 1406 1408 1408 1408 1409 1409 1410 1410 1410 1410
1411 1410 1409 1408 1407 1405 1404 1403 1402 1401 1400 1399 1398 1397 1396 1396 1395 1394 1394 1393 1393 1392 1392 1391 1391 1391 1390 1390 1389 1389 1389 1389 1387 1386 1385 1384 1384 1383 1380 1378 1377 1376 1375 1375 1375 1374 1374 1374 1374 1374 1374 1374 1375 1375 1376 1376 1377 1377 1377 1378 1378 1379 1381 1382 1384 1386 1388 1389 1389 1388 1391 1393 1394 1395 1399 1403 1404 1404 1404 1405 1406 1406 1407 1407 1408
1407 1406 1405 1404 1403 1401 1400 1399 1398 1397 1396 1395 1395 1393 1393 1392 1392 1391 1390 1390 1389 1389 1389 1388 1388 1388 1387 1387 1386 1386 1386 1386 1385 1384 1383 1383 1382 1380 1377 1375 1374 1373 1373 1373 1373 1373 1372 1372 1372 1371 1371 1371 1372 1372 1372 1373 1373 1374 1374 1374 1374 1375 1375 1376 1378 1380 1382 1383 1384 1385 1387 1389 1390 1391 1394 1398 1399 1399 1400 1401 1402 1403 1403 1404 1404
1403 1402 1401 1400 1399 1398 1397 1396 1395 1394 1393 1392 1391 1390 1389 1389 1388 1388 1387 1387 1386 1386 1386 1385 1385 1385 1384 1384 1383 1383 1383 1383 1382 1381 1381 1381 1380 1377 1375 1373 1372 1371 1371 1371 1370 1370 1370 1370 1370 1369 1369 1369 1369 1369 1369 1369 1369 1370 1370 1370 1371 1370 1370 1371 1372 1374 1375 1377 1379 1381 1383 1385 1386 1387 1389 1392 1394 1395 1397 1398 1398 1399 1399 1399 1400
1399 1398 1398 1397 1395 1394 1393 1392 1391 1390 1389 1388 1388 1387 1386 1386 1385 1385 1384 1384 1384 1383 1383 1382 1382 1381 1381 1381 1380 1380 1380 1380 1379 1379 1379 1379 1378 1375 1373 1372 1371 1369 1369 1369 1368 1368 1368 1367 1367 1367 1367 1367 1366 1367 1367 1367 1366 1366 1366 1366 1366 1366 1366 1366 1367 1368 1368 1371 1373 1376 1379 1381 1382 1383 1385 1387 1389 1392 1394 1394 1394 1395 1396 1396 1396
1396 1395 1394 1393 1392 1391 1389 1388 1387 1387 1386 1385 1385 1384 1383 1383 1382 1382 1381 1381 1381 1381 1380 1380 1379 1379 1378 1378 1377 1377 1377 1376 1376 1376 1376 1376 1375 1373 1371 1370 1369 1368 1367 1366 1366 1366 1365 1365 1365 1364 1364 1364 1364 1364 1364 1364 1363 1363 1362 1362 1362 1361 1361 1361 1362 1363 1363 1364 1367 1370 1373 1376 1378 1379 1381 1382 1384 1387 1390 1389 1389 1392 1393 1392 1392
1392 1392 1391 1389 1388 1387 1386 1385 1384 1383 1383 1382 1382 1381 1380 1380 1380 1379 1379 1378 1378 1378 1377 1377 1377 1376 1376 1375 1375 1374 1374 1374 1373 1373 1373 1373 1373 1371 1369 1367 1367 1366 1365 1364 1364 1363 1363 1362 1362 1362 1361 1361 1361 1361 1361 1361 1360 1360 1360 1360 1359 1357 1356 1357 1358 1358 1359 1360 1361 1363 1366 1369 1372 1374 1375 1377 1379 1381 1384 1385 1386 1388 1389 1389 1389
1389 1388 1387 1386 1385 1383 1382 1381 1380 1380 1379 1379 1379 1378 1377 1377 1377 1376 1376 1376 1375 1375 1375 1374 1374 1374 1373 1373 1373 1372 1372 1371 1371 1370 1370 1369 1369 1368 1366 1365 1364 1363 1362 1362 1361 1360 1360 1360 1359 1359 1359 1358 1358 1358 1358 1358 1358 1357 1357 1357 1355 1353 1353 1354 1355 1355 1356 1356 1357 1358 1360 1363 1366 1368 1370 1372 1374 1375 1378 1381 1382 1383 1385 1385 1386
1386 1385 1384 1383 1381 1380 1379 1378 1377 1377 1376 1375 1375 1375 1375 1374 1374 1374 1374 1373 1373 1373 1373 1372 1372 1371 1371 1371 1370 1370 1369 1369 1368 1367 1366 1365 1365 1365 1364 1362 1362 1361 1360 1359 1358 1357 1357 1356 1356 1356 1356 1355 1355 1355 1355 1355 1355 1354 1353 1353 1352 1351 1352 1352 1352 1352 1353 1354 1354 1355 1356 1358 1360 1362 1364 1367 1368 1370 1373 1376 1378 1379 1380 1382 1383
1383 1382 1381 1380 1378 1377 1376 1375 1374 1374 1373 1372 1372 1373 1372 1371 1371 1371 1371 1371 1371 1371 1371 1371 1370 1369 1369 1369 1368 1368 1368 1367 1365 1364 1363 1362 1361 1361 1361 1360 1360 1359 1357 1355 1354 1354 1353 1353 1352 1352 1352 1351 1351 1351 1351 1351 1351 1351 1350 1349 1349 1349 1350 1350 1350 1350 1351 1351 1351 1352 1353 1354 1356 1357 1359 1361 1364 1366 1369 1371 1373 1375 1376 1378 1379
1380 1379 1378 1377 1376 1375 1373 1372 1371 1371 1370 1370 1370 1370 1370 1369 1369 1369 1369 1368 1369 1369 1369 1369 1368 1367 1367 1367 1366 1366 1365 1364 1363 1361 1360 1359 1358 1357 1357 1357 1357 1356 1354 1352 1351 1350 1350 1349 1349 1349 1348 1348 1348 1347 1347 1347 1347 1346 1346 1346 1346 1346 1347 1347 1347 1347 1347 1348 1348 1349 1350 1351 1352 1354 1356 1358 1360 1362 1365 1367 1369 1371 1373 1374 1376
1377 1376 1375 1374 1373 1372 1370 1369 1368 1368 1368 1367 1367 1367 1367 1367 1367 1367 1366 1367 1367 1367 1367 1367 1366 1366 1365 1364 1364 1364 1363 1361 1360 1359 1357 1356 1355 1354 1354 1354 1354 1353 1351 1349 1348 1347 1346 1346 1346 1345 1345 1345 1344 1344 1343 1343 1342 1342 1342 1342 1342 1343 1344 1344 1344 1345 1345 1345 1345 1346 1346 1348 1349 1350 1352 1355 1357 1360 1362 1363 1365 1367 1369 1371 1372
1374 1374 1373 1371 1371 1369 1368 1367 1366 1365 1365 1365 1365 1365 1365 1365 1365 1364 1364 1365 1365 1365 1365 1365 1365 1364 1363 1362 1361 1361 1360 1358 1357 1356 1354 1353 1352 1351 1351 1351 1350 1349 1347 1346 1345 1344 1344 1343 1342 1342 1341 1341 1340 1340 1339 1338 1338 1338 1338 1339 1339 1339 1340 1340 1341 1341 1341 1342 1342 1342 1343 1344 1345 1347 1349 1351 1354 1356 1358 1360 1362 1364 1366 1367 1368
1372 1371 1370 1369 1368 1367 1366 1365 1363 1363 1363 1362 1363 1363 1362 1362 1363 1362 1363 1363 1363 1363 1364 1363 1363 1362 1361 1360 1359 1358 1357 1355 1354 1353 1352 1350 1349 1348 1348 1347 1346 1345 1344 1343 1342 1342 1341 1340 1339 1338 1337 1337 1336 1336 1335 1335 1335 1334 1334 1335 1335 1336 1336 1337 1337 1338 1338 1338 1339 1339 1340 1341 1342 1344 1345 1347 1348 1349 1353 1356 1358 1360 1362 1363 1364
1370 1369 1368 1367 1366 1365 1364 1363 1362 1361 1361 1360 1361 1360 1360 1360 1360 1360 1361 1361 1361 1362 1362 1361 1361 1360 1358 1357 1356 1355 1354 1353 1352 1351 1349 1347 1347 1346 1345 1344 1343 1342 1341 1340 1339 1339 1338 1337 1336 1335 1334 1334 1333 1332 1332 1332 1332 1331 1331 1331 1331 1332 1332 1333 1334 1334 1335 1335 1336 1336 1337 1338 1339 1340 1342 1343 1343 1345 1348 1352 1354 1356 1358 1360 1361
1367 1366 1366 1365 1364 1363 1362 1361 1360 1360 1359 1359 1359 1358 1358 1358 1358 1358 1359 1359 1360 1360 1359 1359 1359 1358 1356 1354 1353 1352 1351 1350 1350 1348 1347 1346 1346 1344 1343 1342 1341 1340 1339 1337 1337 1336 1335 1334 1332 1332 1331 1331 1330 1330 1329 1329 1329 1328 1328 1328 1328 1328 1329 1330 1331 1331 1331 1332 1333 1333 1334 1335 1335 1336 1338 1339 1340 1342 1345 1347 1350 1352 1354 1356 1357
1364 1364 1363 1362 1361 1361 1360 1359 1359 1358 1358 1357 1357 1357 1356 1356 1356 1356 1357 1357 1358 1358 1358 1358 1357 1356 1354 1352 1351 1349 1348 1347 1347 1347 1346 1346 1344 1342 1341 1340 1339 1338 1336 1335 1335 1334 1332 1331 1330 1329 1328 1328 1327 1327 1326 1326 1326 1326 1326 1326 1325 1325 1326 1326 1327 1328 1328 1329 1330 1330 1331 1332 1332 1334 1335 1336 1337 1339 1341 1344 1346 1348 1350 1351 1352
1361 1361 1361 1360 1359 1359 1358 1357 1357 1357 1356 1356 1356 1355 1355 1355 1354 1354 1355 1355 1356 1356 1356 1356 1355 1353 1352 1350 1349 1348 1347 1346 1346 1346 1345 1344 1342 1340 1340 1338 1337 1336 1334 1333 1333 1331 1330 1329 1327 1326 1326 1325 1325 1324 1324 1323 1323 1323 1323 1323 1323 1323 1323 1323 1324 1324 1325 1326 1327 1327 1328 1329 1330 1331 1332 1333 1334 1336 1338 1341 1343 1344 1346 1347 1349
1358 1358 1358 1358 1357 1357 1356 1355 1355 1355 1355 1355 1354 1353 1353 1353 1352 1352 1353 1353 1353 1353 1353 1352 1351 1351 1350 1348 1347 1346 1346 1345 1345 1344 1343 1341 1339 1338 1338 1335 1334 1334 1333 1332 1331 1330 1328 1327 1326 1325 1325 1324 1323 1322 1322 1321 1321 1321 1321 1321 1321 1321 1321 1321 1321 1321 1322 1323 1324 1324 1325 1326 1327 1328 1329 1330 1332 1334 1335 1337 1339 1341 1342 1344 1345
1354 1355 1356 1355 1355 1355 1354 1354 1353 1353 1353 1353 1352 1352 1352 1351 1351 1350 1350 1350 1350 1350 1349 1348 1348 1348 1347 1346 1345 1345 1344 1344 1343 1341 1340 1338 1337 1336 1335 1333 1332 1332 1331 1330 1329 1328 1327 1327 1325 1324 1324 1323 1322 1321 1320 1320 1320 1319 1319 1319 1319 1319 1319 1319 1319 1319 1319 1320 1321 1322 1323 1324 1324 1325 1326 1328 1329 1331 1332 1334 1336 1337 1339 1340 1342
1351 1352 1353 1352 1353 1353 1352 1352 1352 1351 1351 1351 1350 1350 1350 1350 1349 1349 1349 1348 1348 1347 1347 1346 1345 1345 1345 1345 1344 1344 1343 1341 1340 1338 1337 1336 1335 1334 1333 1332 1331 1331 1330 1329 1329 1328 1327 1326 1325 1324 1323 1322 1321 1320 1320 1319 1319 1318 1317 1317 1317 1317 1317 1317 1317 1317 1317 1318 1319 1319 1320 1321 1322 1323 1324 1325 1326 1328 1329 1330 1332 1333 1335 1336 1338
1348 1348 1349 1349 1350 1350 1350 1350 1350 1349 1349 1349 1348 1348 1348 1348 1348 1348 1347 1347 1346 1346 1345 1344 1344 1343 1343 1343 1342 1342 1340 1339 1338 1336 1335 1334 1333 1332 1331 1331 1330 1330 1329 1329 1328 1327 1326 1325 1324 1323 1322 1321 1320 1319 1319 1318 1318 1317 1317 1316 1316 1315 1315 1315 1315 1315 1315 1316 1317 1317 1318 1319 1319 1320 1321 1322 1323 1324 1325 1327 1328 1330 1331 1333 1334
1344 1345 1345 1346 1347 1347 1348 1348 1347 1347 1347 1346 1346 1346 1346 1346 1346 1346 1346 1345 1345 1344 1344 1343 1342 1342 1341 1341 1340 1340 1338 1337 1336 1335 1334 1333 1331 1331 1330 1330 1329 1329 1328 1328 1327 1326 1325 1324 1323 1322 1321 1320 1319 1318 1317 1317 1316 1316 1315 1315 1314 1314 1314 1314 1314 1313 1313 1314 1314 1315 1316 1316 1317 1318 1319 1319 1320 1321 1321 1323 1324 1326 1327 1329 1331
1340 1341 1342 1343 1344 1345 1345 1345 1345 1345 1345 1344 1344 1344 1344 1344 1344 1344 1344 1344 1343 1343 1342 1342 1341 1340 1340 1339 1339 1338 1337 1336 1335 1334 1333 1332 1331 1330 1329 1328 1328 1327 1327 1326 1325 1325 1324 1323 1322 1322 1321 1320 1318 1317 1316 1316 1315 1314 1314 1314 1313 1313 1312 1312 1312 1312 1312 1312 1312 1312 1313 1313 1314 1315 1316 1316 1317 1318 1319 1320 1321 1322 1324 1326 1327
1336 1337 1339 1340 1341 1342 1342 1342 1342 1342 1342 1342 1342 1342 1341 1342 1342 1342 1342 1341 1341 1341 1341 1340 1339 1339 1338 1338 1338 1337 1336 1335 1334 1333 1332 1331 1330 1329 1329 1328 1327 1326 1325 1325 1324 1323 1323 1322 1321 1320 1320 1319 1318 1317 1315 1315 1314 1313 1313 1312 1312 1311 1311 1310 1310 1310 1310 1310 1310 1310 1310 1310 1311 1312 1313 1313 1314 1315 1316 1318 1319 1319 1321 1322 1324
1332 1334 1336 1337 1337 1338 1339 1339 1340 1340 1340 1340 1340 1340 1340 1339 1339 1340 1340 1339 1339 1339 1339 1339 1338 1338 1337 1337 1337 1336 1335 1334 1333 1332 1331 1330 1329 1329 1328 1327 1326 1325 1324 1323 1323 1322 1321 1321 1320 1319 1319 1318 1317 1316 1315 1314 1313 1313 1312 1311 1311 1310 1309 1309 1309 1308 1308 1308 1308 1308 1308 1308 1308 1309 1309 1310 1311 1312 1313 1314 1315 1316 1318 1319 1320
1329 1330 1332 1333 1334 1335 1336 1336 1337 1337 1338 1338 1338 1338 1338 1337 1338 1338 1338 1337 1337 1337 1337 1337 1336 1336 1335 1336 1335 1335 1334 1333 1333 1332 1331 1330 1329 1328 1327 1326 1326 1325 1324 1323 1322 1321 1320 1320 1319 1318 1318 1317 1316 1315 1314 1313 1312 1312 1311 1311 1310 1309 1308 1308 1307 1307 1307 1306 1306 1306 1306 1306 1306 1306 1306 1307 1307 1308 1309 1311 1312 1313 1314 1315 1316
1326 1327 1328 1329 1331 1332 1333 1333 1334 1335 1335 1335 1336 1336 1336 1336 1336 1336 1336 1336 1335 1335 1335 1335 1335 1334 1334 1334 1334 1333 1333 1333 1332 1331 1330 1329 1328 1327 1326 1326 1325 1324 1323 1323 1322 1321 1320 1319 1318 1317 1317 1316 1315 1315 1314 1313 1312 1311 1310 1310 1309 1308 1307 1307 1306 1306 1305 1305 1304 1304 1304 1304 1304 1303 1303 1303 1304 1305 1306 1307 1308 1309 1311 1312 1313
1323 1324 1325 1326 1327 1328 1330 1331 1331 1332 1333 1333 1333 1333 1334 1334 1334 1334 1334 1334 1334 1334 1334 1334 1333 1333 1332 1332 1332 1332 1331 1331 1331 1330 1329 1328 1327 1326 1326 1325 1324 1323 1323 1322 1321 1320 1319 1318 1318 1317 1316 1315 1315 1314 1313 1312 1311 1310 1310 1309 1308 1307 1306 1305 1305 1304 1304 1303 1303 1302 1302 1302 1301 1301 1301 1301 1301 1301 1302 1303 1305 1306 1307 1309 1310
1319 1320 1321 1323 1324 1325 1327 1328 1329 1330 1331 1331 1331 1331 1332 1332 1332 1332 1332 1332 1332 1332 1332 1332 1332 1332 1331 1331 1330 1330 1330 1330 1330 1329 1328 1327 1326 1326 1325 1324 1324 1323 1322 1322 1321 1320 1319 1318 1318 1317 1316 1315 1314 1314 1313 1312 1311 1310 1309 1308 1308 1307 1306 1305 1304 1303 1302 1302 1301 1301 1300 1300 1299 1299 1299 1298 1298 1298 1299 1300 1301 1303 1304 1305 1307
1315 1317 1318 1320 1321 1322 1324 1325 1327 1327 1328 1329 1329 1329 1330 1330 1330 1330 1331 1331 1331 1331 1331 1331 1330 1330 1330 1329 1329 1329 1329 1329 1328 1328 1327 1326 1325 1325 1324 1323 1323 1322 1322 1321 1320 1320 1319 1318 1318 1317 1316 1315 1314 1313 1313 1312 1311 1310 1309 1308 1307 1306 1305 1305 1304 1303 1302 1301 1300 1300 1299 1298 1298 1297 1297 1297 1296 1296 1297 1297 1298 1299 1301 1302 1303
1312 1314 1315 1316 1318 1320 1321 1322 1324 1325 1326 1327 1327 1327 1327 1328 1328 1329 1329 1329 1329 1329 1329 1329 1329 1329 1328 1328 1328 1327 1327 1327 1327 1327 1326 1325 1324 1324 1323 1322 1322 1322 1321 1320 1320 1319 1318 1318 1317 1316 1316 1315 1314 1313 1312 1311 1310 1309 1309 1308 1307 1306 1305 1304 1303 1302 1301 1301 1300 1299 1298 1298 1297 1296 1296 1295 1295 1295 1295 1295 1296 1297 1298 1299 1301
1309 1310 1312 1314 1315 1317 1318 1320 1321 1322 1323 1324 1325 1325 1325 1326 1326 1327 1327 1327 1327 1327 1327 1328 1328 1327 1327 1326 1326 1326 1326 1326 1325 1325 1325 1324 1323 1323 1322 1321 1321 1321 1320 1320 1319 1319 1318 1317 1317 1316 1315 1315 1314 1313 1312 1311 1310 1309 1308 1307 1306 1306 1305 1304 1303 1302 1301 1301 1300 1299 1298 1297 1296 1296 1295 1294 1294 1293 1293 1293 1294 1295 1296 1297 1298
1306 1308 1310 1311 1313 1314 1316 1317 1318 1320 1321 1322 1322 1323 1323 1324 1324 1325 1325 1325 1325 1326 1326 1326 1326 1326 1325 1325 1325 1324 1324 1324 1324 1324 1323 1323 1322 1322 1321 1320 1320 1319 1319 1319 1318 1318 1317 1317 1316 1315 1315 1314 1313 1313 1312 1311 1310 1309 1308 1307 1306 1305 1305 1304 1303 1302 1302 1301 1300 1299 1298 1297 1296 1295 1295 1294 1293 1293 1292 1292 1292 1293 1294 1295 1296
1304 1305 1307 1309 1310 1312 1313 1315 1316 1317 1318 1319 1320 1321 1321 1321 1322 1323 1323 1323 1324 1324 1324 1324 1324 1324 1324 1323 1323 1323 1322 1322 1322 1322 1321 1321 1321 1320 1320 1319 1319 1318 1318 1317 1317 1316 1316 1316 1315 1315 1314 1313 1313 1312 1311 1311 1310 1309 1308 1308 1307 1306 1305 1304 1303 1302 1302 1301 1300 1299 1298 1297 1296 1296 1295 1294 1293 1293 1292 1292 1292 1292 1292 1293 1294
1300 1303 1304 1306 1308 1309 1311 1312 1313 1314 1316 1317 1318 1318 1319 1319 1320 1320 1321 1321 1321 1322 1322 1322 1322 1322 1322 1321 1321 1321 1321 1320 1320 1320 1320 1319 1319 1319 1318 1318 1317 1317 1316 1316 1315 1315 1315 1314 1314 1313 1313 1312 1312 1311 1311 1310 1309 1309 1308 1307 1307 1306 1305 1304 1303 1302 1302 1301 1300 1299 1299 1298 1297 1296 1295 1294 1294 1293 1292 1292 1292 1291 1291 1292 1292
1298 1300 1302 1304 1305 1307 1309 1310 1311 1312 1314 1315 1316 1316 1317 1317 1318 1318 1319 1319 1319 1319 1320 1320 1320 1320 1320 1320 1319 1319 1319 1319 1318 1318 1318 1318 1317 1317 1317 1316 1316 1315 1315 1314 1314 1314 1313 1313 1313 1312 1312 1311 1311 1310 1310 1309 1308 1308 1307 1307 1306 1305 1305 1304 1303 1302 1301 1301 1300 1300 1299 1298 1298 1297 1296 1295 1294 1294 1293 1293 1292 1292 1292 1292 1292
1295 1298 1300 1302 1304 1305 1307 1308 1309 1311 1312 1313 1313 1314 1315 1315 1316 1316 1317 1317 1317 1318 1318 1318 1318 1318 1318 1318 1317 1317 1317 1317 1317 1317 1316 1316 1316 1315 1315 1315 1314 1314 1313 1313 1312 1312 1312 1311 1311 1311 1310 1310 1309 1309 1308 1308 1307 1307 1306 1306 1305 1305 1304 1303 1302 1302 1301 1300 1300 1299 1299 1298 1298 1297 1297 1296 1295 1294 1294 1293 1293 1293 1292 1292 1292
1294 1296 1298 1300 1302 1303 1305 1306 1307 1309 1310 1311 1312 1312 1313 1314 1314 1315 1315 1315 1316 1316 1316 1316 1316 1316 1316 1316 1316 1315 1315 1315 1315 1315 1315 1314 1314 1314 1313 1313 1313 1312 1312 1311 1311 1310 1310 1310 1309 1309 1309 1308 1308 1307 1307 1306 1306 1305 1305 1304 1304 1303 1303 1302 1302 1301 1300 1300 1299 1299 1298 1298 1298 1297 1297 1297 1296 1296 1295 1295 1294 1294 1293 1293 1293